Time,TemperatureF,DewpointF,PressureIn,WindDirection,WindDirectionDegrees,WindSpeedMPH,WindSpeedGustMPH,Humidity,HourlyPrecipIn,Conditions,Clouds,dailyrainin,SoftwareType,DateUTC
2013-08-11 00:01:00,52.9,52.1,30.56,West,281,0.0,0.0,97,0.00,FEW,,0.00,WeatherDisplay:10.37,2013-08-11 04:01:00,
2013-08-11 00:06:00,53.2,52.7,30.56,West,281,0.0,0.0,98,0.00,FEW,,0.00,WeatherDisplay:10.37,2013-08-11 04:06:00,
2013-08-11 00:11:00,53.3,52.8,30.56,West,281,0.0,0.0,98,0.00,FEW,,0.00,WeatherDisplay:10.37,2013-08-11 04:11:00,
2013-08-11 00:16:00,53.3,52.8,30.56,West,281,0.0,0.0,98,0.00,FEW,,0.00,WeatherDisplay:10.37,2013-08-11 04:16:00,
2013-08-11 00:21:00,53.2,52.7,30.56,West,281,0.0,0.0,98,0.00,FEW,,0.00,WeatherDisplay:10.37,2013-08-11 04:21:00,
2013-08-11 00:26:00,53.3,52.8,30.57,West,281,0.0,0.0,98,0.00,FEW,,0.00,WeatherDisplay:10.37,2013-08-11 04:26:00,
2013-08-11 00:31:00,53.2,52.7,30.56,West,281,0.0,0.0,98,0.00,FEW,,0.00,WeatherDisplay:10.37,2013-08-11 04:31:00,
2013-08-11 00:37:00,53.1,52.6,30.57,West,281,0.0,0.0,98,0.00,FEW,,0.00,WeatherDisplay:10.37,2013-08-11 04:37:00,
2013-08-11 00:42:00,53.1,52.6,30.57,West,281,0.0,0.0,98,0.00,FEW,,0.00,WeatherDisplay:10.37,2013-08-11 04:42:00,
2013-08-11 00:47:00,53.1,52.6,30.57,West,281,0.0,0.0,98,0.00,FEW,,0.00,WeatherDisplay:10.37,2013-08-11 04:47:00,
2013-08-11 00:52:00,52.9,52.4,30.57,West,281,0.0,0.0,98,0.00,FEW,,0.00,WeatherDisplay:10.37,2013-08-11 04:52:00,
2013-08-11 00:57:00,52.6,52.1,30.56,West,281,0.0,0.0,98,0.00,FEW,,0.00,WeatherDisplay:10.37,2013-08-11 04:57:00,
2013-08-11 01:02:00,52.2,51.7,30.56,West,281,0.0,0.0,98,0.00,CLR,,0.00,WeatherDisplay:10.37,2013-08-11 05:02:00,
2013-08-11 01:07:00,51.9,51.0,30.06,West,281,0.0,0.0,98,0.00,,,0.00,weatherlink.com 1.10,2013-08-11 05:07:00,
2013-08-11 01:12:00,52.0,51.5,30.56,West,281,0.0,0.0,98,0.00,CLR,,0.00,WeatherDisplay:10.37,2013-08-11 05:12:00,
2013-08-11 01:17:00,52.0,51.5,30.57,West,281,0.0,0.0,98,0.00,CLR,,0.00,WeatherDisplay:10.37,2013-08-11 05:17:00,
2013-08-11 01:22:00,52.1,51.6,30.56,West,281,0.0,0.0,98,0.00,CLR,,0.00,WeatherDisplay:10.37,2013-08-11 05:22:00,
2013-08-11 01:27:00,52.2,51.7,30.57,West,281,0.0,0.0,98,0.00,CLR,,0.00,WeatherDisplay:10.37,2013-08-11 05:27:00,
2013-08-11 01:32:00,51.9,51.4,30.57,West,281,0.0,0.0,98,0.00,CLR,,0.00,WeatherDisplay:10.37,2013-08-11 05:32:00,
2013-08-11 01:37:00,51.8,51.3,30.57,West,281,0.0,0.0,98,0.00,CLR,,0.00,WeatherDisplay:10.37,2013-08-11 05:37:00,
2013-08-11 01:43:00,51.7,51.2,30.57,West,281,0.0,0.0,98,0.00,CLR,,0.00,WeatherDisplay:10.37,2013-08-11 05:43:00,
2013-08-11 01:49:00,51.5,51.0,30.57,West,281,0.0,0.0,98,0.00,CLR,,0.00,WeatherDisplay:10.37,2013-08-11 05:49:00,
2013-08-11 01:54:00,52.0,51.5,30.57,West,281,0.0,0.0,98,0.00,CLR,,0.00,WeatherDisplay:10.37,2013-08-11 05:54:00,
2013-08-11 01:59:00,51.9,51.4,30.57,West,281,0.0,0.0,98,0.00,CLR,,0.00,WeatherDisplay:10.37,2013-08-11 05:59:00,
2013-08-11 02:04:00,51.8,51.3,30.57,West,281,0.0,0.0,98,0.00,CLR,,0.00,WeatherDisplay:10.37,2013-08-11 06:04:00,
2013-08-11 02:10:00,51.7,51.2,30.57,West,281,0.0,0.0,98,0.00,CLR,,0.00,WeatherDisplay:10.37,2013-08-11 06:10:00,
2013-08-11 02:15:00,51.6,51.1,30.57,West,281,0.0,0.0,98,0.00,CLR,,0.00,WeatherDisplay:10.37,2013-08-11 06:15:00,
2013-08-11 02:20:00,51.5,51.0,30.57,West,281,0.0,0.0,98,0.00,CLR,,0.00,WeatherDisplay:10.37,2013-08-11 06:20:00,
2013-08-11 02:25:00,51.3,50.8,30.57,West,281,0.0,0.0,98,0.00,CLR,,0.00,WeatherDisplay:10.37,2013-08-11 06:25:00,
2013-08-11 02:30:00,50.9,50.4,30.57,West,281,0.0,0.0,98,0.00,CLR,,0.00,WeatherDisplay:10.37,2013-08-11 06:30:00,
2013-08-11 02:36:00,50.5,50.0,30.57,West,281,0.0,0.0,98,0.00,CLR,,0.00,WeatherDisplay:10.37,2013-08-11 06:36:00,
2013-08-11 02:41:00,50.5,50.0,30.57,West,281,0.0,0.0,98,0.00,CLR,,0.00,WeatherDisplay:10.37,2013-08-11 06:41:00,
2013-08-11 02:46:00,50.4,49.9,30.57,West,281,0.0,0.0,98,0.00,CLR,,0.00,WeatherDisplay:10.37,2013-08-11 06:46:00,
2013-08-11 02:51:00,50.3,49.8,30.57,West,281,0.0,0.0,98,0.00,CLR,,0.00,WeatherDisplay:10.37,2013-08-11 06:51:00,
2013-08-11 02:57:00,50.4,49.9,30.58,West,281,0.0,0.0,98,0.00,CLR,,0.00,WeatherDisplay:10.37,2013-08-11 06:57:00,
2013-08-11 03:02:00,50.3,49.8,30.58,West,281,0.0,0.0,98,0.00,CLR,,0.00,WeatherDisplay:10.37,2013-08-11 07:02:00,
2013-08-11 03:07:00,50.1,49.6,30.57,West,281,0.0,0.0,98,0.00,CLR,,0.00,WeatherDisplay:10.37,2013-08-11 07:07:00,
2013-08-11 03:12:00,50.2,49.7,30.57,West,281,0.0,0.0,98,0.00,CLR,,0.00,WeatherDisplay:10.37,2013-08-11 07:12:00,
2013-08-11 03:17:00,50.6,50.1,30.57,West,281,0.0,0.0,98,0.00,CLR,,0.00,WeatherDisplay:10.37,2013-08-11 07:17:00,
2013-08-11 03:23:00,51.1,50.6,30.57,West,281,0.0,0.0,98,0.00,CLR,,0.00,WeatherDisplay:10.37,2013-08-11 07:23:00,
2013-08-11 03:29:00,51.1,50.6,30.57,West,281,0.0,0.0,98,0.00,CLR,,0.00,WeatherDisplay:10.37,2013-08-11 07:29:00,
2013-08-11 03:34:00,51.1,50.6,30.57,West,281,0.0,0.0,98,0.00,CLR,,0.00,WeatherDisplay:10.37,2013-08-11 07:34:00,
2013-08-11 03:39:00,50.9,50.4,30.57,West,281,0.0,0.0,98,0.00,CLR,,0.00,WeatherDisplay:10.37,2013-08-11 07:39:00,
2013-08-11 03:44:00,50.6,50.1,30.57,West,281,0.0,0.0,98,0.00,CLR,,0.00,WeatherDisplay:10.37,2013-08-11 07:44:00,
2013-08-11 03:49:00,50.3,49.8,30.57,West,281,0.0,0.0,98,0.00,CLR,,0.00,WeatherDisplay:10.37,2013-08-11 07:49:00,
2013-08-11 03:54:00,50.1,49.6,30.57,West,281,0.0,0.0,98,0.00,CLR,,0.00,WeatherDisplay:10.37,2013-08-11 07:54:00,
2013-08-11 04:00:00,50.2,49.7,30.57,West,281,0.0,0.0,98,0.00,CLR,,0.00,WeatherDisplay:10.37,2013-08-11 08:00:00,
2013-08-11 04:05:00,50.3,49.8,30.57,West,281,0.0,0.0,98,0.00,CLR,,0.00,WeatherDisplay:10.37,2013-08-11 08:05:00,
2013-08-11 04:10:00,50.2,49.7,30.57,West,281,0.0,0.0,98,0.00,CLR,,0.00,WeatherDisplay:10.37,2013-08-11 08:10:00,
2013-08-11 04:15:00,50.1,49.6,30.57,West,281,0.0,0.0,98,0.00,CLR,,0.00,WeatherDisplay:10.37,2013-08-11 08:15:00,
2013-08-11 04:20:00,50.1,49.6,30.57,West,281,0.0,0.0,98,0.00,CLR,,0.00,WeatherDisplay:10.37,2013-08-11 08:20:00,
2013-08-11 04:25:00,50.1,49.6,30.57,West,281,0.0,0.0,98,0.00,CLR,,0.00,WeatherDisplay:10.37,2013-08-11 08:25:00,
2013-08-11 04:30:00,50.2,49.7,30.57,West,281,0.0,0.0,98,0.00,CLR,,0.00,WeatherDisplay:10.37,2013-08-11 08:30:00,
2013-08-11 04:35:00,50.1,49.6,30.57,West,281,0.0,0.0,98,0.00,CLR,,0.00,WeatherDisplay:10.37,2013-08-11 08:35:00,
2013-08-11 04:40:00,50.0,49.5,30.57,West,281,0.0,0.0,98,0.00,CLR,,0.00,WeatherDisplay:10.37,2013-08-11 08:40:00,
2013-08-11 04:45:00,49.9,49.4,30.58,West,281,1.2,0.0,98,0.00,CLR,,0.00,WeatherDisplay:10.37,2013-08-11 08:45:00,
2013-08-11 04:50:00,49.6,49.1,30.58,West,281,0.0,0.0,98,0.00,CLR,,0.00,WeatherDisplay:10.37,2013-08-11 08:50:00,
2013-08-11 04:56:00,49.5,49.0,30.57,West,281,0.0,0.0,98,0.00,CLR,,0.00,WeatherDisplay:10.37,2013-08-11 08:56:00,
2013-08-11 05:01:00,49.5,49.0,30.58,West,281,0.0,0.0,98,0.00,CLR,,0.00,WeatherDisplay:10.37,2013-08-11 09:01:00,
2013-08-11 05:06:00,49.5,49.0,30.58,West,281,0.0,0.0,98,0.00,CLR,,0.00,WeatherDisplay:10.37,2013-08-11 09:06:00,
2013-08-11 05:11:00,49.5,49.0,30.58,West,281,0.0,0.0,98,0.00,CLR,,0.00,WeatherDisplay:10.37,2013-08-11 09:11:00,
2013-08-11 05:16:00,49.6,49.3,30.58,West,281,0.0,0.0,99,0.00,CLR,,0.00,WeatherDisplay:10.37,2013-08-11 09:16:00,
2013-08-11 05:21:00,49.6,49.1,30.58,West,281,0.0,0.0,98,0.00,CLR,,0.00,WeatherDisplay:10.37,2013-08-11 09:21:00,
2013-08-11 05:28:00,49.3,49.0,30.58,West,281,0.0,0.0,99,0.00,CLR,,0.00,WeatherDisplay:10.37,2013-08-11 09:28:00,
2013-08-11 05:33:00,49.2,48.9,30.58,West,281,0.0,0.0,99,0.00,CLR,,0.00,WeatherDisplay:10.37,2013-08-11 09:33:00,
2013-08-11 05:38:00,48.9,48.6,30.58,West,281,0.0,0.0,99,0.00,CLR,,0.00,WeatherDisplay:10.37,2013-08-11 09:38:00,
2013-08-11 05:43:00,49.0,48.7,30.58,West,281,0.0,0.0,99,0.00,CLR,,0.00,WeatherDisplay:10.37,2013-08-11 09:43:00,
2013-08-11 05:48:00,49.1,48.8,30.58,West,281,0.0,0.0,99,0.00,CLR,,0.00,WeatherDisplay:10.37,2013-08-11 09:48:00,
2013-08-11 05:53:00,48.9,48.6,30.58,West,281,0.0,0.0,99,0.00,CLR,,0.00,WeatherDisplay:10.37,2013-08-11 09:53:00,
2013-08-11 05:59:00,48.6,48.3,30.58,West,281,0.0,0.0,99,0.00,CLR,,0.00,WeatherDisplay:10.37,2013-08-11 09:59:00,
2013-08-11 06:04:00,48.7,48.4,30.58,West,281,0.0,0.0,99,0.00,CLR,,0.00,WeatherDisplay:10.37,2013-08-11 10:04:00,
2013-08-11 06:09:00,48.9,48.6,30.58,West,281,0.0,0.0,99,0.00,CLR,,0.00,WeatherDisplay:10.37,2013-08-11 10:09:00,
2013-08-11 06:15:00,48.7,48.4,30.58,West,281,0.0,0.0,99,0.00,CLR,,0.00,WeatherDisplay:10.37,2013-08-11 10:15:00,
2013-08-11 06:20:00,48.6,48.3,30.58,West,281,0.0,0.0,99,0.00,CLR,,0.00,WeatherDisplay:10.37,2013-08-11 10:20:00,
2013-08-11 06:25:00,48.4,48.1,30.59,West,281,0.0,0.0,99,0.00,CLR,,0.00,WeatherDisplay:10.37,2013-08-11 10:25:00,
2013-08-11 06:30:00,48.4,48.1,30.59,West,281,0.0,0.0,99,0.00,CLR,,0.00,WeatherDisplay:10.37,2013-08-11 10:30:00,
2013-08-11 06:35:00,48.3,48.0,30.59,West,281,0.0,0.0,99,0.00,CLR,,0.00,WeatherDisplay:10.37,2013-08-11 10:35:00,
2013-08-11 06:40:00,48.1,47.8,30.59,West,281,0.0,0.0,99,0.00,CLR,,0.00,WeatherDisplay:10.37,2013-08-11 10:40:00,
2013-08-11 06:45:00,48.0,47.7,30.59,West,281,0.0,0.0,99,0.00,CLR,,0.00,WeatherDisplay:10.37,2013-08-11 10:45:00,
2013-08-11 06:52:00,48.7,48.4,30.59,West,281,0.0,0.0,99,0.00,CLR,,0.00,WeatherDisplay:10.37,2013-08-11 10:52:00,
2013-08-11 06:58:00,49.2,48.9,30.60,West,281,0.0,0.0,99,0.00,CLR,,0.00,WeatherDisplay:10.37,2013-08-11 10:58:00,
2013-08-11 07:03:00,50.3,50.0,30.60,West,281,0.0,0.0,99,0.00,CLR,,0.00,WeatherDisplay:10.37,2013-08-11 11:03:00,
2013-08-11 07:08:00,51.5,51.2,30.60,West,281,0.0,0.0,99,0.00,CLR,,0.00,WeatherDisplay:10.37,2013-08-11 11:08:00,
2013-08-11 07:14:00,53.6,53.3,30.60,West,281,0.0,0.0,99,0.00,CLR,,0.00,WeatherDisplay:10.37,2013-08-11 11:14:00,
2013-08-11 07:19:00,54.4,54.1,30.60,West,274,1.2,1.2,99,0.00,CLR,,0.00,WeatherDisplay:10.37,2013-08-11 11:19:00,
2013-08-11 07:24:00,54.2,53.9,30.60,West,275,1.2,0.0,99,0.00,CLR,,0.00,WeatherDisplay:10.37,2013-08-11 11:24:00,
2013-08-11 07:29:00,54.6,54.0,30.60,West,275,1.2,0.0,98,0.00,CLR,,0.00,WeatherDisplay:10.37,2013-08-11 11:29:00,
2013-08-11 07:34:00,54.6,54.0,30.60,West,274,0.0,0.0,98,0.00,CLR,,0.00,WeatherDisplay:10.37,2013-08-11 11:34:00,
2013-08-11 07:40:00,55.7,55.1,30.60,West,275,0.0,0.0,98,0.00,CLR,,0.00,WeatherDisplay:10.37,2013-08-11 11:40:00,
2013-08-11 07:45:00,56.6,56.0,30.60,West,272,2.3,0.0,98,0.00,CLR,,0.00,WeatherDisplay:10.37,2013-08-11 11:45:00,
2013-08-11 07:51:00,56.8,56.2,30.60,West,272,1.2,1.2,98,0.00,CLR,,0.00,WeatherDisplay:10.37,2013-08-11 11:51:00,
2013-08-11 07:56:00,57.2,56.0,30.10,West,260,0.0,2.0,97,0.00,,,0.00,weatherlink.com 1.10,2013-08-11 11:56:00,
2013-08-11 08:01:00,57.6,56.8,30.60,West,260,1.2,1.2,97,0.00,CLR,,0.00,WeatherDisplay:10.37,2013-08-11 12:01:00,
2013-08-11 08:06:00,58.2,57.4,30.60,WSW,258,1.2,1.2,97,0.00,CLR,,0.00,WeatherDisplay:10.37,2013-08-11 12:06:00,
2013-08-11 08:11:00,59.0,57.9,30.60,WSW,258,1.2,1.2,96,0.00,CLR,,0.00,WeatherDisplay:10.37,2013-08-11 12:11:00,
2013-08-11 08:18:00,59.9,57.9,30.60,WSW,249,3.0,3.0,93,0.00,CLR,,0.00,WeatherDisplay:10.37,2013-08-11 12:18:00,
2013-08-11 08:23:00,60.3,58.0,30.60,SW,236,3.5,3.5,92,0.00,CLR,,0.00,WeatherDisplay:10.37,2013-08-11 12:23:00,
2013-08-11 08:28:00,60.8,58.2,30.60,WSW,251,3.5,3.5,91,0.00,CLR,,0.00,WeatherDisplay:10.37,2013-08-11 12:28:00,
2013-08-11 08:33:00,61.3,58.3,30.60,WNW,289,4.0,4.0,90,0.00,CLR,,0.00,WeatherDisplay:10.37,2013-08-11 12:33:00,
2013-08-11 08:38:00,61.6,58.3,30.60,West,264,2.3,2.3,89,0.00,CLR,,0.00,WeatherDisplay:10.37,2013-08-11 12:38:00,
2013-08-11 08:44:00,62.3,58.4,30.60,West,279,3.5,3.5,87,0.00,CLR,,0.00,WeatherDisplay:10.37,2013-08-11 12:44:00,
2013-08-11 08:49:00,62.9,59.6,30.60,NW,307,3.5,3.5,89,0.00,CLR,,0.00,WeatherDisplay:10.37,2013-08-11 12:49:00,
2013-08-11 08:54:00,63.1,58.5,30.60,WNW,295,4.6,4.6,85,0.00,CLR,,0.00,WeatherDisplay:10.37,2013-08-11 12:54:00,
2013-08-11 09:00:00,63.4,59.1,30.60,West,269,4.0,4.0,86,0.00,CLR,,0.00,WeatherDisplay:10.37,2013-08-11 13:00:00,
2013-08-11 09:05:00,63.8,59.5,30.60,West,267,3.5,3.5,86,0.00,FEW,,0.00,WeatherDisplay:10.37,2013-08-11 13:05:00,
2013-08-11 09:10:00,64.5,59.6,30.60,WNW,298,3.5,3.5,84,0.00,FEW,,0.00,WeatherDisplay:10.37,2013-08-11 13:10:00,
2013-08-11 09:15:00,64.9,60.3,30.60,West,276,2.3,2.3,85,0.00,FEW,,0.00,WeatherDisplay:10.37,2013-08-11 13:15:00,
2013-08-11 09:20:00,65.4,60.1,30.60,West,264,3.5,3.5,83,0.00,FEW,,0.00,WeatherDisplay:10.37,2013-08-11 13:20:00,
2013-08-11 09:25:00,65.6,60.0,30.60,West,274,3.5,3.5,82,0.00,FEW,,0.00,WeatherDisplay:10.37,2013-08-11 13:25:00,
2013-08-11 09:30:00,66.1,60.8,30.60,WNW,290,3.0,3.0,83,0.00,FEW,,0.00,WeatherDisplay:10.37,2013-08-11 13:30:00,
2013-08-11 09:35:00,66.4,60.4,30.60,WNW,302,3.5,3.5,81,0.00,FEW,,0.00,WeatherDisplay:10.37,2013-08-11 13:35:00,
2013-08-11 09:40:00,66.6,59.2,30.60,WNW,303,4.6,4.6,77,0.00,FEW,,0.00,WeatherDisplay:10.37,2013-08-11 13:40:00,
2013-08-11 09:45:00,66.6,60.2,30.61,WNW,294,4.0,4.0,80,0.00,FEW,,0.00,WeatherDisplay:10.37,2013-08-11 13:45:00,
2013-08-11 09:51:00,66.9,59.5,30.60,WNW,282,2.3,2.3,77,0.00,FEW,,0.00,WeatherDisplay:10.37,2013-08-11 13:51:00,
2013-08-11 09:56:00,67.5,60.4,30.61,WNW,283,6.0,6.0,78,0.00,FEW,,0.00,WeatherDisplay:10.37,2013-08-11 13:56:00,
2013-08-11 10:01:00,67.3,58.7,30.61,NW,312,2.3,2.3,74,0.00,FEW,,0.00,WeatherDisplay:10.37,2013-08-11 14:01:00,
2013-08-11 10:06:00,67.6,58.6,30.61,West,274,5.8,5.8,73,0.00,SCT,,0.00,WeatherDisplay:10.37,2013-08-11 14:06:00,
2013-08-11 10:11:00,67.7,58.3,30.61,NW,311,5.8,5.8,72,0.00,SCT,,0.00,WeatherDisplay:10.37,2013-08-11 14:11:00,
2013-08-11 10:16:00,67.9,58.1,30.61,West,262,6.9,6.9,71,0.00,SCT,,0.00,WeatherDisplay:10.37,2013-08-11 14:16:00,
2013-08-11 10:21:00,67.9,57.8,30.61,WNW,290,3.5,3.5,70,0.00,SCT,,0.00,WeatherDisplay:10.37,2013-08-11 14:21:00,
2013-08-11 10:26:00,67.9,58.1,30.61,WNW,293,3.5,3.5,71,0.00,SCT,,0.00,WeatherDisplay:10.37,2013-08-11 14:26:00,
2013-08-11 10:31:00,68.4,58.6,30.61,West,276,5.0,5.0,71,0.00,SCT,,0.00,WeatherDisplay:10.37,2013-08-11 14:31:00,
2013-08-11 10:37:00,68.5,58.3,30.61,West,281,5.0,5.0,70,0.00,SCT,,0.00,WeatherDisplay:10.37,2013-08-11 14:37:00,
2013-08-11 10:42:00,69.0,57.6,30.61,WSW,248,6.0,6.0,67,0.00,SCT,,0.00,WeatherDisplay:10.37,2013-08-11 14:42:00,
2013-08-11 10:47:00,69.3,58.3,30.61,WNW,290,5.0,5.0,68,0.00,SCT,,0.00,WeatherDisplay:10.37,2013-08-11 14:47:00,
2013-08-11 10:52:00,69.2,56.9,30.61,WSW,244,5.8,5.8,65,0.00,SCT,,0.00,WeatherDisplay:10.37,2013-08-11 14:52:00,
2013-08-11 10:58:00,69.6,56.4,30.60,West,274,6.9,6.9,63,0.00,SCT,,0.00,WeatherDisplay:10.37,2013-08-11 14:58:00,
2013-08-11 11:03:00,69.7,57.8,30.60,NW,318,5.8,5.8,66,0.00,SCT,,0.00,WeatherDisplay:10.37,2013-08-11 15:03:00,
2013-08-11 11:08:00,70.1,56.9,30.60,NW,316,9.2,9.2,63,0.00,SCT,,0.00,WeatherDisplay:10.37,2013-08-11 15:08:00,
2013-08-11 11:13:00,69.6,56.0,30.60,WNW,292,3.5,3.5,62,0.00,SCT,,0.00,WeatherDisplay:10.37,2013-08-11 15:13:00,
2013-08-11 11:18:00,69.5,57.2,30.60,NW,305,1.2,1.2,65,0.00,SCT,,0.00,WeatherDisplay:10.37,2013-08-11 15:18:00,
2013-08-11 11:24:00,70.0,56.8,30.60,WNW,288,5.0,5.0,63,0.00,SCT,,0.00,WeatherDisplay:10.37,2013-08-11 15:24:00,
2013-08-11 11:29:00,69.4,58.4,30.60,NW,312,3.5,3.5,68,0.00,SCT,,0.00,WeatherDisplay:10.37,2013-08-11 15:29:00,
2013-08-11 11:34:00,69.0,56.3,30.60,WNW,295,4.6,4.6,64,0.00,SCT,,0.00,WeatherDisplay:10.37,2013-08-11 15:34:00,
2013-08-11 11:40:00,70.2,57.9,30.60,North,8,2.3,2.3,65,0.00,SCT,,0.00,WeatherDisplay:10.37,2013-08-11 15:40:00,
2013-08-11 11:45:00,70.7,56.6,30.60,NNW,330,3.5,3.5,61,0.00,SCT,,0.00,WeatherDisplay:10.37,2013-08-11 15:45:00,
2013-08-11 11:50:00,70.8,55.3,30.60,WNW,302,4.6,4.6,58,0.00,SCT,,0.00,WeatherDisplay:10.37,2013-08-11 15:50:00,
2013-08-11 11:55:00,70.0,56.4,30.60,WNW,296,4.0,4.0,62,0.00,SCT,,0.00,WeatherDisplay:10.37,2013-08-11 15:55:00,
2013-08-11 12:01:00,70.7,55.2,30.60,WNW,288,5.0,5.0,58,0.00,SCT,,0.00,WeatherDisplay:10.37,2013-08-11 16:01:00,
2013-08-11 12:06:00,70.1,56.5,30.60,NW,309,5.8,5.8,62,0.00,BKN,,0.00,WeatherDisplay:10.37,2013-08-11 16:06:00,
2013-08-11 12:11:00,69.7,56.1,30.60,NW,314,3.5,3.5,62,0.00,BKN,,0.00,WeatherDisplay:10.37,2013-08-11 16:11:00,
2013-08-11 12:16:00,69.2,56.9,30.60,WNW,303,3.5,3.5,65,0.00,BKN,,0.00,WeatherDisplay:10.37,2013-08-11 16:16:00,
2013-08-11 12:22:00,69.6,57.7,30.60,WNW,300,1.2,1.2,66,0.00,BKN,,0.00,WeatherDisplay:10.37,2013-08-11 16:22:00,
2013-08-11 12:27:00,69.9,54.9,30.60,WNW,293,4.6,4.6,59,0.00,BKN,,0.00,WeatherDisplay:10.37,2013-08-11 16:27:00,
2013-08-11 12:32:00,70.9,55.9,30.60,WNW,291,2.3,2.3,59,0.00,BKN,,0.00,WeatherDisplay:10.37,2013-08-11 16:32:00,
2013-08-11 12:37:00,71.6,57.4,30.59,WNW,300,8.1,8.1,61,0.00,BKN,,0.00,WeatherDisplay:10.37,2013-08-11 16:37:00,
2013-08-11 12:43:00,72.0,56.4,30.59,West,279,10.4,10.4,58,0.00,BKN,,0.00,WeatherDisplay:10.37,2013-08-11 16:43:00,
2013-08-11 12:48:00,71.8,56.7,30.59,WNW,290,6.9,6.9,59,0.00,BKN,,0.00,WeatherDisplay:10.37,2013-08-11 16:48:00,
2013-08-11 12:55:00,71.0,56.4,30.59,West,281,9.2,9.2,60,0.00,BKN,,0.00,WeatherDisplay:10.37,2013-08-11 16:55:00,
2013-08-11 13:00:00,71.6,57.4,30.59,NW,320,9.0,9.0,61,0.00,BKN,,0.00,WeatherDisplay:10.37,2013-08-11 17:00:00,
2013-08-11 13:06:00,72.0,55.9,30.59,WNW,285,7.0,7.0,57,0.00,BKN,,0.00,WeatherDisplay:10.37,2013-08-11 17:06:00,
2013-08-11 13:11:00,72.5,56.4,30.58,NW,323,4.0,4.0,57,0.00,BKN,,0.00,WeatherDisplay:10.37,2013-08-11 17:11:00,
2013-08-11 13:16:00,72.3,57.6,30.58,West,274,11.5,11.5,60,0.00,BKN,,0.00,WeatherDisplay:10.37,2013-08-11 17:16:00,
2013-08-11 13:21:00,71.5,56.4,30.58,NW,320,7.0,7.0,59,0.00,BKN,,0.00,WeatherDisplay:10.37,2013-08-11 17:21:00,
2013-08-11 13:27:00,71.7,58.9,30.58,WNW,290,4.6,4.6,64,0.00,BKN,,0.00,WeatherDisplay:10.37,2013-08-11 17:27:00,
2013-08-11 13:32:00,72.0,58.3,30.58,NNW,345,3.5,3.5,62,0.00,BKN,,0.00,WeatherDisplay:10.37,2013-08-11 17:32:00,
2013-08-11 13:37:00,72.2,56.1,30.58,NW,317,10.0,10.0,57,0.00,BKN,,0.00,WeatherDisplay:10.37,2013-08-11 17:37:00,
2013-08-11 13:43:00,72.0,56.4,30.57,NW,318,6.0,6.0,58,0.00,BKN,,0.00,WeatherDisplay:10.37,2013-08-11 17:43:00,
2013-08-11 13:48:00,72.5,57.4,30.57,WSW,243,6.9,6.9,59,0.00,BKN,,0.00,WeatherDisplay:10.37,2013-08-11 17:48:00,
2013-08-11 13:53:00,73.1,55.5,30.57,West,281,6.9,6.9,54,0.00,BKN,,0.00,WeatherDisplay:10.37,2013-08-11 17:53:00,
2013-08-11 13:58:00,73.2,59.4,30.57,WNW,302,10.4,10.4,62,0.00,BKN,,0.00,WeatherDisplay:10.37,2013-08-11 17:58:00,
2013-08-11 14:04:00,72.7,57.5,30.57,NW,312,8.1,8.1,59,0.00,BKN,,0.00,WeatherDisplay:10.37,2013-08-11 18:04:00,
2013-08-11 14:09:00,72.4,58.2,30.57,WNW,300,1.2,0.0,61,0.00,BKN,,0.00,WeatherDisplay:10.37,2013-08-11 18:09:00,
2013-08-11 14:15:00,73.3,57.1,30.56,WNW,282,4.0,4.0,57,0.00,BKN,,0.00,WeatherDisplay:10.37,2013-08-11 18:15:00,
2013-08-11 14:20:00,73.9,57.2,30.56,WNW,300,6.9,6.9,56,0.00,BKN,,0.00,WeatherDisplay:10.37,2013-08-11 18:20:00,
2013-08-11 14:25:00,74.0,58.3,30.56,WNW,286,6.0,6.0,58,0.00,BKN,,0.00,WeatherDisplay:10.37,2013-08-11 18:25:00,
2013-08-11 14:30:00,73.2,57.5,30.56,WNW,298,6.0,6.0,58,0.00,BKN,,0.00,WeatherDisplay:10.37,2013-08-11 18:30:00,
2013-08-11 14:36:00,72.7,60.7,30.57,WNW,300,2.3,2.3,66,0.00,BKN,,0.00,WeatherDisplay:10.37,2013-08-11 18:36:00,
2013-08-11 14:41:00,72.5,58.3,30.57,WNW,298,3.5,3.5,61,0.00,BKN,,0.00,WeatherDisplay:10.37,2013-08-11 18:41:00,
2013-08-11 14:46:00,72.6,57.9,30.57,West,265,3.5,3.5,60,0.00,BKN,,0.00,WeatherDisplay:10.37,2013-08-11 18:46:00,
2013-08-11 14:51:00,73.5,57.8,30.56,East,92,4.0,4.0,58,0.00,BKN,,0.00,WeatherDisplay:10.37,2013-08-11 18:51:00,
2013-08-11 14:56:00,73.4,56.2,30.56,West,277,4.6,4.6,55,0.00,BKN,,0.00,WeatherDisplay:10.37,2013-08-11 18:56:00,
2013-08-11 15:01:00,72.4,57.7,30.56,NW,317,4.6,4.6,60,0.00,BKN,,0.00,WeatherDisplay:10.37,2013-08-11 19:01:00,
2013-08-11 15:06:00,72.4,57.3,30.56,WNW,291,2.3,2.3,59,0.00,BKN,,0.00,WeatherDisplay:10.37,2013-08-11 19:06:00,
2013-08-11 15:12:00,73.2,59.4,30.56,North,356,4.6,4.6,62,0.00,BKN,,0.00,WeatherDisplay:10.37,2013-08-11 19:12:00,
2013-08-11 15:17:00,73.7,61.2,30.56,NW,315,1.2,1.2,65,0.00,BKN,,0.00,WeatherDisplay:10.37,2013-08-11 19:17:00,
2013-08-11 15:22:00,74.4,59.1,30.56,NNE,27,3.5,0.0,59,0.00,BKN,,0.00,WeatherDisplay:10.37,2013-08-11 19:22:00,
2013-08-11 15:27:00,74.7,58.9,30.55,NE,51,3.5,3.5,58,0.00,BKN,,0.00,WeatherDisplay:10.37,2013-08-11 19:27:00,
2013-08-11 15:33:00,74.8,58.1,30.55,NW,309,3.5,3.5,56,0.00,BKN,,0.00,WeatherDisplay:10.37,2013-08-11 19:33:00,
2013-08-11 15:38:00,74.4,60.1,30.55,WNW,302,3.5,3.5,61,0.00,BKN,,0.00,WeatherDisplay:10.37,2013-08-11 19:38:00,
2013-08-11 15:43:00,73.7,58.0,30.55,WNW,302,1.2,1.2,58,0.00,BKN,,0.00,WeatherDisplay:10.37,2013-08-11 19:43:00,
2013-08-11 15:48:00,73.5,59.7,30.55,WNW,289,2.3,2.3,62,0.00,BKN,,0.00,WeatherDisplay:10.37,2013-08-11 19:48:00,
2013-08-11 15:53:00,73.3,60.4,30.55,NW,305,2.3,2.3,64,0.00,BKN,,0.00,WeatherDisplay:10.37,2013-08-11 19:53:00,
2013-08-11 15:58:00,73.9,60.5,30.55,NW,317,3.5,3.5,63,0.00,BKN,,0.00,WeatherDisplay:10.37,2013-08-11 19:58:00,
2013-08-11 16:03:00,73.7,59.9,30.54,WNW,290,1.2,1.2,62,0.00,SCT,,0.00,WeatherDisplay:10.37,2013-08-11 20:03:00,
2013-08-11 16:08:00,73.4,60.0,30.55,NNW,327,1.2,1.2,63,0.00,SCT,,0.00,WeatherDisplay:10.37,2013-08-11 20:08:00,
2013-08-11 16:13:00,72.7,60.3,30.55,NW,307,2.3,2.3,65,0.00,SCT,,0.00,WeatherDisplay:10.37,2013-08-11 20:13:00,
2013-08-11 16:18:00,73.5,61.4,30.54,NW,307,2.3,2.3,66,0.00,SCT,,0.00,WeatherDisplay:10.37,2013-08-11 20:18:00,
2013-08-11 16:24:00,73.5,59.2,30.54,NNW,327,2.3,2.3,61,0.00,SCT,,0.00,WeatherDisplay:10.37,2013-08-11 20:24:00,
2013-08-11 16:29:00,72.6,58.8,30.54,WSW,257,6.0,6.0,62,0.00,SCT,,0.00,WeatherDisplay:10.37,2013-08-11 20:29:00,
2013-08-11 16:34:00,71.9,59.1,30.54,WNW,288,3.5,3.5,64,0.00,SCT,,0.00,WeatherDisplay:10.37,2013-08-11 20:34:00,
2013-08-11 16:40:00,71.6,57.4,30.54,WNW,288,3.5,3.5,61,0.00,SCT,,0.00,WeatherDisplay:10.37,2013-08-11 20:40:00,
2013-08-11 16:45:00,71.5,60.4,30.54,WNW,290,2.3,2.3,68,0.00,SCT,,0.00,WeatherDisplay:10.37,2013-08-11 20:45:00,
2013-08-11 16:50:00,71.4,59.4,30.54,WNW,290,1.2,1.2,66,0.00,SCT,,0.00,WeatherDisplay:10.37,2013-08-11 20:50:00,
2013-08-11 16:55:00,71.4,61.1,30.54,WNW,290,0.0,0.0,70,0.00,SCT,,0.00,WeatherDisplay:10.37,2013-08-11 20:55:00,
2013-08-11 17:01:00,71.4,61.1,30.54,WNW,290,0.0,0.0,70,0.00,FEW,,0.00,WeatherDisplay:10.37,2013-08-11 21:01:00,
2013-08-11 17:06:00,71.8,62.3,30.53,WNW,290,0.0,0.0,72,0.00,FEW,,0.00,WeatherDisplay:10.37,2013-08-11 21:06:00,
2013-08-11 17:11:00,72.7,59.4,30.54,WNW,289,2.3,2.3,63,0.00,FEW,,0.00,WeatherDisplay:10.37,2013-08-11 21:11:00,
2013-08-11 17:16:00,73.6,61.5,30.53,NNW,342,1.2,1.2,66,0.00,FEW,,0.00,WeatherDisplay:10.37,2013-08-11 21:16:00,
2013-08-11 17:21:00,73.7,58.5,30.53,West,270,1.2,1.2,59,0.00,FEW,,0.00,WeatherDisplay:10.37,2013-08-11 21:21:00,
2013-08-11 17:27:00,73.9,59.1,30.53,West,279,3.5,3.5,60,0.00,FEW,,0.00,WeatherDisplay:10.37,2013-08-11 21:27:00,
2013-08-11 17:33:00,74.3,58.6,30.53,WNW,292,3.5,3.5,58,0.00,FEW,,0.00,WeatherDisplay:10.37,2013-08-11 21:33:00,
2013-08-11 17:38:00,74.2,58.0,30.53,WNW,282,3.5,3.5,57,0.00,FEW,,0.00,WeatherDisplay:10.37,2013-08-11 21:38:00,
2013-08-11 17:43:00,74.2,58.9,30.53,West,277,3.5,3.5,59,0.00,FEW,,0.00,WeatherDisplay:10.37,2013-08-11 21:43:00,
2013-08-11 17:48:00,74.5,57.3,30.53,NW,319,3.5,3.5,55,0.00,FEW,,0.00,WeatherDisplay:10.37,2013-08-11 21:48:00,
2013-08-11 17:53:00,74.8,57.5,30.53,WNW,296,3.5,3.5,55,0.00,FEW,,0.00,WeatherDisplay:10.37,2013-08-11 21:53:00,
2013-08-11 17:58:00,74.3,56.1,30.53,WNW,300,7.0,7.0,53,0.00,FEW,,0.00,WeatherDisplay:10.37,2013-08-11 21:58:00,
2013-08-11 18:03:00,73.9,55.2,30.53,WNW,299,8.1,8.1,52,0.00,FEW,,0.00,WeatherDisplay:10.37,2013-08-11 22:03:00,
2013-08-11 18:08:00,73.8,56.6,30.53,WNW,302,6.0,6.0,55,0.00,FEW,,0.00,WeatherDisplay:10.37,2013-08-11 22:08:00,
2013-08-11 18:14:00,73.9,57.7,30.52,WNW,286,4.6,4.6,57,0.00,FEW,,0.00,WeatherDisplay:10.37,2013-08-11 22:14:00,
2013-08-11 18:20:00,73.9,56.7,30.53,NW,309,3.5,3.5,55,0.00,FEW,,0.00,WeatherDisplay:10.37,2013-08-11 22:20:00,
2013-08-11 18:25:00,73.9,56.2,30.52,WNW,299,3.5,3.5,54,0.00,FEW,,0.00,WeatherDisplay:10.37,2013-08-11 22:25:00,
2013-08-11 18:30:00,74.0,57.3,30.52,WNW,300,2.3,2.3,56,0.00,FEW,,0.00,WeatherDisplay:10.37,2013-08-11 22:30:00,
2013-08-11 18:35:00,74.0,56.3,30.52,WNW,298,3.5,3.5,54,0.00,FEW,,0.00,WeatherDisplay:10.37,2013-08-11 22:35:00,
2013-08-11 18:40:00,74.4,60.1,30.52,WNW,294,2.3,2.3,61,0.00,FEW,,0.00,WeatherDisplay:10.37,2013-08-11 22:40:00,
2013-08-11 18:45:00,75.2,61.7,30.52,WNW,297,0.0,0.0,63,0.00,FEW,,0.00,WeatherDisplay:10.37,2013-08-11 22:45:00,
2013-08-11 18:50:00,75.7,60.4,30.52,WNW,297,0.0,0.0,59,0.00,FEW,,0.00,WeatherDisplay:10.37,2013-08-11 22:50:00,
2013-08-11 18:55:00,76.2,61.3,30.52,WNW,297,0.0,0.0,60,0.00,FEW,,0.00,WeatherDisplay:10.37,2013-08-11 22:55:00,
2013-08-11 19:00:00,75.9,61.0,30.52,WNW,302,1.2,1.2,60,0.00,FEW,,0.00,WeatherDisplay:10.37,2013-08-11 23:00:00,
2013-08-11 19:05:00,74.8,60.9,30.52,WNW,302,1.2,0.0,62,0.00,FEW,,0.00,WeatherDisplay:10.37,2013-08-11 23:05:00,
2013-08-11 19:10:00,74.5,60.6,30.52,WNW,302,0.0,0.0,62,0.00,FEW,,0.00,WeatherDisplay:10.37,2013-08-11 23:10:00,
2013-08-11 19:15:00,73.9,61.0,30.52,WNW,302,0.0,0.0,64,0.00,FEW,,0.00,WeatherDisplay:10.37,2013-08-11 23:15:00,
2013-08-11 19:21:00,73.7,60.3,30.52,WNW,302,0.0,0.0,63,0.00,FEW,,0.00,WeatherDisplay:10.37,2013-08-11 23:21:00,
2013-08-11 19:26:00,73.6,60.7,30.52,WNW,302,0.0,0.0,64,0.00,FEW,,0.00,WeatherDisplay:10.37,2013-08-11 23:26:00,
2013-08-11 19:31:00,72.9,60.4,30.52,WNW,302,0.0,0.0,65,0.00,FEW,,0.00,WeatherDisplay:10.37,2013-08-11 23:31:00,
2013-08-11 19:36:00,72.5,60.5,30.52,WNW,302,0.0,0.0,66,0.00,FEW,,0.00,WeatherDisplay:10.37,2013-08-11 23:36:00,
2013-08-11 19:41:00,72.6,61.4,30.52,WNW,302,0.0,0.0,68,0.00,FEW,,0.00,WeatherDisplay:10.37,2013-08-11 23:41:00,
2013-08-11 19:46:00,72.2,61.5,30.52,WNW,302,0.0,0.0,69,0.00,FEW,,0.00,WeatherDisplay:10.37,2013-08-11 23:46:00,
2013-08-11 19:52:00,71.3,60.6,30.52,WNW,302,0.0,0.0,69,0.00,FEW,,0.00,WeatherDisplay:10.37,2013-08-11 23:52:00,
2013-08-11 19:57:00,70.3,60.1,30.52,WNW,302,0.0,0.0,70,0.00,FEW,,0.00,WeatherDisplay:10.37,2013-08-11 23:57:00,
2013-08-11 20:02:00,69.0,60.0,30.52,WNW,302,0.0,0.0,73,0.00,SCT,,0.00,WeatherDisplay:10.37,2013-08-12 00:02:00,
2013-08-11 20:07:00,67.6,59.8,30.52,WNW,302,0.0,0.0,76,0.00,SCT,,0.00,WeatherDisplay:10.37,2013-08-12 00:07:00,
2013-08-11 20:13:00,66.4,59.7,30.52,WNW,302,0.0,0.0,79,0.00,SCT,,0.00,WeatherDisplay:10.37,2013-08-12 00:13:00,
2013-08-11 20:18:00,65.2,60.2,30.52,WNW,302,0.0,0.0,84,0.00,SCT,,0.00,WeatherDisplay:10.37,2013-08-12 00:18:00,
2013-08-11 20:23:00,64.1,59.8,30.52,WNW,302,0.0,0.0,86,0.00,SCT,,0.00,WeatherDisplay:10.37,2013-08-12 00:23:00,
2013-08-11 20:28:00,63.3,59.0,30.52,WNW,302,0.0,0.0,86,0.00,SCT,,0.00,WeatherDisplay:10.37,2013-08-12 00:28:00,
2013-08-11 20:33:00,62.9,59.0,30.52,WNW,302,0.0,0.0,87,0.00,SCT,,0.00,WeatherDisplay:10.37,2013-08-12 00:33:00,
2013-08-11 20:39:00,62.4,58.8,30.52,WNW,302,0.0,0.0,88,0.00,SCT,,0.00,WeatherDisplay:10.37,2013-08-12 00:39:00,
2013-08-11 20:44:00,61.7,58.4,30.52,WNW,302,0.0,0.0,89,0.00,SCT,,0.00,WeatherDisplay:10.37,2013-08-12 00:44:00,
2013-08-11 20:49:00,61.0,58.0,30.52,WNW,302,0.0,0.0,90,0.00,SCT,,0.00,WeatherDisplay:10.37,2013-08-12 00:49:00,
2013-08-11 20:54:00,60.6,58.0,30.52,WNW,302,0.0,0.0,91,0.00,SCT,,0.00,WeatherDisplay:10.37,2013-08-12 00:54:00,
2013-08-11 20:59:00,60.3,58.0,30.52,WNW,302,0.0,0.0,92,0.00,SCT,,0.00,WeatherDisplay:10.37,2013-08-12 00:59:00,
2013-08-11 21:04:00,60.2,58.5,30.52,WNW,302,0.0,0.0,94,0.00,SCT,,0.00,WeatherDisplay:10.37,2013-08-12 01:04:00,
2013-08-11 21:09:00,60.0,58.3,30.52,WNW,302,1.2,0.0,94,0.00,SCT,,0.00,WeatherDisplay:10.37,2013-08-12 01:09:00,
2013-08-11 21:14:00,60.0,58.3,30.52,WNW,302,0.0,0.0,94,0.00,SCT,,0.00,WeatherDisplay:10.37,2013-08-12 01:14:00,
2013-08-11 21:19:00,59.9,58.2,30.52,WNW,302,0.0,0.0,94,0.00,SCT,,0.00,WeatherDisplay:10.37,2013-08-12 01:19:00,
2013-08-11 21:24:00,59.5,57.8,30.52,WNW,302,0.0,0.0,94,0.00,SCT,,0.00,WeatherDisplay:10.37,2013-08-12 01:24:00,
2013-08-11 21:30:00,59.3,57.9,30.52,WNW,302,0.0,0.0,95,0.00,SCT,,0.00,WeatherDisplay:10.37,2013-08-12 01:30:00,
2013-08-11 21:35:00,59.1,57.7,30.52,WNW,302,0.0,0.0,95,0.00,SCT,,0.00,WeatherDisplay:10.37,2013-08-12 01:35:00,
2013-08-11 21:40:00,58.9,57.5,30.52,WNW,302,0.0,0.0,95,0.00,SCT,,0.00,WeatherDisplay:10.37,2013-08-12 01:40:00,
2013-08-11 21:45:00,58.8,57.4,30.52,WNW,302,0.0,0.0,95,0.00,SCT,,0.00,WeatherDisplay:10.37,2013-08-12 01:45:00,
2013-08-11 21:50:00,58.9,57.8,30.52,WNW,302,1.2,0.0,96,0.00,SCT,,0.00,WeatherDisplay:10.37,2013-08-12 01:50:00,
2013-08-11 21:55:00,59.0,57.9,30.52,WNW,302,0.0,0.0,96,0.00,SCT,,0.00,WeatherDisplay:10.37,2013-08-12 01:55:00,
2013-08-11 22:01:00,58.7,57.6,30.52,WNW,302,0.0,0.0,96,0.00,SCT,,0.00,WeatherDisplay:10.37,2013-08-12 02:01:00,
2013-08-11 22:06:00,58.5,57.4,30.52,WNW,302,0.0,0.0,96,0.00,SCT,,0.00,WeatherDisplay:10.37,2013-08-12 02:06:00,
2013-08-11 22:11:00,58.7,57.9,30.52,WNW,302,0.0,0.0,97,0.00,SCT,,0.00,WeatherDisplay:10.37,2013-08-12 02:11:00,
2013-08-11 22:16:00,58.8,58.0,30.52,WNW,302,0.0,0.0,97,0.00,SCT,,0.00,WeatherDisplay:10.37,2013-08-12 02:16:00,
2013-08-11 22:21:00,59.0,58.2,30.52,WNW,302,0.0,0.0,97,0.00,SCT,,0.00,WeatherDisplay:10.37,2013-08-12 02:21:00,
2013-08-11 22:26:00,59.0,58.2,30.52,WNW,302,0.0,0.0,97,0.00,SCT,,0.00,WeatherDisplay:10.37,2013-08-12 02:26:00,
2013-08-11 22:32:00,59.2,58.3,30.52,WNW,302,0.0,0.0,97,0.00,SCT,,0.00,WeatherDisplay:10.37,2013-08-12 02:32:00,
2013-08-11 22:37:00,59.4,58.5,30.52,WNW,302,0.0,0.0,97,0.00,SCT,,0.00,WeatherDisplay:10.37,2013-08-12 02:37:00,
2013-08-11 22:43:00,59.4,58.5,30.52,WNW,302,0.0,0.0,97,0.00,SCT,,0.00,WeatherDisplay:10.37,2013-08-12 02:43:00,
2013-08-11 22:48:00,59.5,58.6,30.52,WNW,302,0.0,0.0,97,0.00,SCT,,0.00,WeatherDisplay:10.37,2013-08-12 02:48:00,
2013-08-11 22:53:00,59.5,58.6,30.52,WNW,302,0.0,0.0,97,0.00,SCT,,0.00,WeatherDisplay:10.37,2013-08-12 02:53:00,
2013-08-11 22:58:00,59.5,58.6,30.53,WNW,302,0.0,0.0,97,0.00,SCT,,0.00,WeatherDisplay:10.37,2013-08-12 02:58:00,
2013-08-11 23:03:00,59.4,58.5,30.53,WNW,302,0.0,0.0,97,0.00,SCT,,0.00,WeatherDisplay:10.37,2013-08-12 03:03:00,
2013-08-11 23:08:00,59.3,58.4,30.53,WNW,302,0.0,0.0,97,0.00,SCT,,0.00,WeatherDisplay:10.37,2013-08-12 03:08:00,
2013-08-11 23:14:00,59.3,58.4,30.52,WNW,302,0.0,0.0,97,0.00,SCT,,0.00,WeatherDisplay:10.37,2013-08-12 03:14:00,
2013-08-11 23:19:00,59.4,58.5,30.52,WNW,302,0.0,0.0,97,0.00,SCT,,0.00,WeatherDisplay:10.37,2013-08-12 03:19:00,
2013-08-11 23:24:00,59.6,58.7,30.52,WNW,302,0.0,0.0,97,0.00,SCT,,0.00,WeatherDisplay:10.37,2013-08-12 03:24:00,
2013-08-11 23:29:00,59.8,58.9,30.52,WNW,302,0.0,0.0,97,0.00,SCT,,0.00,WeatherDisplay:10.37,2013-08-12 03:29:00,
2013-08-11 23:34:00,59.9,59.0,30.52,WNW,302,0.0,0.0,97,0.00,SCT,,0.00,WeatherDisplay:10.37,2013-08-12 03:34:00,
2013-08-11 23:39:00,59.9,58.8,30.52,WNW,302,0.0,0.0,96,0.00,SCT,,0.00,WeatherDisplay:10.37,2013-08-12 03:39:00,
2013-08-11 23:44:00,59.9,58.8,30.52,WNW,302,0.0,0.0,96,0.00,SCT,,0.00,WeatherDisplay:10.37,2013-08-12 03:44:00,
2013-08-11 23:49:00,60.0,58.6,30.52,WNW,302,0.0,0.0,95,0.00,SCT,,0.00,WeatherDisplay:10.37,2013-08-12 03:49:00,
2013-08-11 23:54:00,60.1,58.7,30.52,WNW,302,0.0,0.0,95,0.00,SCT,,0.00,WeatherDisplay:10.37,2013-08-12 03:54:00,